This demonstration page uses our WeatherBlox Daily Observations layout. Learn more.

Left ArrowRight Arrow

40.92945, -100.16068

Hourly Observations for February 24, 2015

Temp ( °F °C ) Dew Point ( °F °C ) Humidity (%) Winds ( mph kmh ) Pressure ( in mb ) Visibility ( mi km ) Precip ( " mm )
12:15 am 00:15 Clear 17 -8.3 11 -11.8 76 76 WSW 14 22 30.30 1026 10 16 N/A
12:35 am 00:35 Clear 17 -8.5 11 -11.8 77 77 W 12 19 30.30 1026 10 16 N/A
12:55 am 00:55 Clear 17 -8.6 11 -11.9 77 77 WSW 8 13 30.27 1025 10 16 N/A
1:15 am 01:15 Clear 16 -8.8 10 -12 78 78 WSW 7 11 30.27 1025 10 16 N/A
1:35 am 01:35 Clear 15 -9.2 10 -12.1 80 80 WSW 7 11 30.27 1025 10 16 N/A
2:15 am 02:15 Clear 15 -9.2 10 -12 80 80 W 9 15 30.24 1024 10 16 N/A
2:35 am 02:35 Clear 15 -9.6 10 -12.2 82 82 W 7 11 30.24 1024 10 16 N/A
2:55 am 02:55 Clear 16 -9 11 -11.8 80 80 W 10 17 30.24 1024 10 16 N/A
3:15 am 03:15 Clear 15 -9.6 10 -12.2 82 82 W 5 7 30.24 1024 10 16 N/A
3:35 am 03:35 Clear 15 -9.3 10 -12 81 81 W 6 9 30.24 1024 10 16 N/A
3:55 am 03:55 Clear 15 -9.4 11 -11.7 84 84 WNW 8 13 30.24 1024 10 16 N/A
4:15 am 04:15 Clear 15 -9.5 11 -11.9 83 83 WNW 8 13 30.24 1024 10 16 N/A
4:35 am 04:35 Clear 16 -9 11 -11.5 82 82 WNW 10 17 30.24 1024 10 16 N/A
4:55 am 04:55 Clear 18 -7.9 13 -10.6 81 81 WNW 14 22 30.24 1024 10 16 N/A
5:15 am 05:15 Clear 19 -7.2 14 -10.1 80 80 WNW 14 22 30.21 1023 10 16 N/A
5:35 am 05:35 Clear 19 -7 14 -10 79 79 WNW 14 22 30.21 1023 10 16 N/A
5:55 am 05:55 Clear 20 -6.7 14 -10 78 78 WNW 14 22 30.21 1023 10 16 N/A
6:15 am 06:15 Clear 21 -6.3 14 -9.9 76 76 NW 10 17 30.21 1023 10 16 N/A
6:35 am 06:35 Clear 21 -6.3 14 -10 75 75 WNW 13 20 30.21 1023 10 16 N/A
6:55 am 06:55 Clear 20 -6.5 14 -10 76 76 WNW 12 19 30.21 1023 10 16 N/A
7:15 am 07:15 Clear 20 -6.6 14 -9.9 78 78 WNW 12 19 30.21 1023 10 16 N/A
7:35 am 07:35 Sunny 22 -5.7 15 -9.5 75 75 WNW 15 24 30.21 1023 10 16 N/A
7:55 am 07:55 Sunny 23 -4.8 16 -9.1 72 72 WNW 16 26 30.21 1023 10 16 N/A
8:10 am 08:10 Sunny 25 -4 16 -8.7 70 70 WNW 16 26 30.18 1022 10 16 N/A
8:35 am 08:35 Sunny 27 -2.9 18 -8 68 68 WNW 15 24 30.18 1022 10 16 N/A
8:55 am 08:55 Sunny 29 -1.5 19 -7.3 65 65 WNW 16 26 30.15 1021 10 16 N/A
9:15 am 09:15 Sunny 32 0.1 20 -6.5 62 62 WNW 18 30 30.15 1021 10 16 N/A
9:35 am 09:35 Sunny 35 1.7 21 -6.1 57 57 NW 21 33 30.12 1020 10 16 N/A
9:55 am 09:55 Sunny 36 2.4 21 -5.9 55 55 NW 18 30 30.12 1020 10 16 N/A
10:15 am 10:15 Sunny 39 3.8 22 -5.3 52 52 NW 18 30 30.09 1019 10 16 N/A
10:35 am 10:35 Sunny 42 5.6 23 -5.2 46 46 NNW 21 33 30.09 1019 10 16 N/A
10:55 am 10:55 Sunny 44 6.5 23 -5.2 43 43 N 20 31 30.09 1019 10 16 N/A
11:15 am 11:15 Sunny 46 7.5 23 -5 41 41 NNW 21 33 30.06 1018 10 16 N/A
11:35 am 11:35 Sunny 47 8.4 22 -5.8 36 36 N 18 30 30.06 1018 10 16 N/A
11:55 am 11:55 Sunny 48 8.7 21 -6.3 34 34 N 18 30 30.06 1018 10 16 N/A
12:15 pm 12:15 Sunny 49 9.3 20 -6.4 33 33 N 17 28 30.06 1018 10 16 N/A
12:35 pm 12:35 Sunny 49 9.7 21 -6.3 32 32 N 15 24 30.00 1016 10 16 N/A
12:55 pm 12:55 Sunny 50 9.8 21 -6.3 32 32 NNW 16 26 30.00 1016 10 16 N/A
1:15 pm 13:15 Sunny 50 10.2 21 -6 32 32 N 17 28 30.00 1016 10 16 N/A
1:35 pm 13:35 Sunny 51 10.4 22 -5.8 32 32 NNW 15 24 29.97 1015 10 16 N/A
1:55 pm 13:55 Sunny 52 10.9 22 -5.6 31 31 NNW 13 20 29.97 1015 10 16 N/A
2:15 pm 14:15 Sunny 52 11.3 22 -5.5 31 31 NNW 13 20 29.97 1015 10 16 N/A
2:35 pm 14:35 Sunny 53 11.6 22 -5.3 30 30 NW 18 30 29.94 1014 10 16 N/A
2:55 pm 14:55 Sunny 53 11.5 23 -5.2 31 31 N 8 13 29.94 1014 10 16 N/A
3:15 pm 15:15 Sunny 53 11.6 23 -5.1 31 31 NW 10 17 29.94 1014 10 16 N/A
3:35 pm 15:35 Sunny 53 11.8 23 -4.9 31 31 N 12 19 29.94 1014 10 16 N/A
3:55 pm 15:55 Sunny 53 11.7 23 -5 31 31 NNW 10 17 29.91 1013 10 16 N/A
4:15 pm 16:15 Partly Cloudy 53 11.8 23 -4.8 31 31 NNW 6 9 29.91 1013 10 16 N/A
4:35 pm 16:35 Partly Cloudy 53 11.8 24 -4.5 32 32 WNW 8 13 29.91 1013 10 16 N/A
4:55 pm 16:55 Sunny 53 11.8 24 -4.5 32 32 NW 6 9 29.91 1013 10 16 N/A
5:15 pm 17:15 Sunny 53 11.5 24 -4.5 33 33 NNW 6 9 29.85 1011 10 16 N/A
5:35 pm 17:35 Sunny 52 11.1 24 -4.3 34 34 Calm 29.88 1012 10 16 N/A
5:55 pm 17:55 Sunny 50 10.2 24 -4.6 35 35 Calm 29.88 1012 10 16 N/A
6:15 pm 18:15 Sunny 49 9.6 24 -4.5 37 37 Calm 29.88 1012 10 16 N/A
6:35 pm 18:35 Clear 46 7.7 23 -4.8 41 41 Calm 29.91 1013 10 16 N/A
6:55 pm 18:55 Clear 42 5.8 24 -4.6 48 48 SSE 5 7 29.91 1013 10 16 N/A
7:15 pm 19:15 Clear 42 5.8 22 -5.3 45 45 SSE 5 7 29.91 1013 10 16 N/A
7:35 pm 19:35 Clear 39 3.9 22 -5.3 51 51 S 6 9 29.91 1013 10 16 N/A
7:55 pm 19:55 Clear 36 2.2 22 -5.4 58 58 S 3 6 29.94 1014 10 16 N/A
8:15 pm 20:15 Clear 35 1.7 22 -5.7 58 58 S 5 7 29.94 1014 10 16 N/A
8:35 pm 20:35 Clear 35 1.6 22 -5.3 61 61 S 7 11 29.94 1014 10 16 N/A
8:55 pm 20:55 Clear 35 1.5 23 -5.2 61 61 SSW 6 9 29.88 1012 10 16 N/A
9:15 pm 21:15 Clear 33 0.8 22 -5.5 63 63 S 7 11 29.91 1013 10 16 N/A
9:35 pm 21:35 Clear 34 1.1 23 -4.9 65 65 S 8 13 29.91 1013 10 16 N/A
9:55 pm 21:55 Clear 32 0.2 22 -5.5 66 66 S 7 11 29.91 1013 10 16 N/A
10:15 pm 22:15 Clear 32 0 22 -5.3 68 68 S 3 6 29.91 1013 10 16 N/A
10:35 pm 22:35 Clear 34 1 23 -4.8 66 66 S 5 7 29.91 1013 10 16 N/A
10:55 pm 22:55 Clear 33 0.8 24 -4.7 67 67 SSW 7 11 29.91 1013 10 16 N/A
11:15 pm 23:15 Clear 32 0.2 24 -4.7 70 70 SW 3 6 29.88 1012 10 16 N/A
11:35 pm 23:35 Clear 35 1.9 26 -3.5 68 68 Calm 29.85 1011 10 16 N/A
11:55 pm 23:55 Clear 34 1.2 26 -3.2 73 73 WSW 5 7 29.88 1012 10 16 N/A

Powered by AerisWeather